WESTFORD NEEDLES, 2364

Orbit data source: Space-Track

WESTFORD NEEDLES, 2364 is space debris in LEO originally from a launch on Thu, 09 May 1963 UTC launched from the Air Force Western Test Range (AFWTR). Debris objects in space refer to the collection of defunct objects orbiting the Earth. Examples of debris include non-operational satellites, rocket bodies, and fragments generated from explosions, collisions, or faulty payload assembly.

Loading next visibility...
WESTFORD NEEDLES details
Identifier
2364, 1963-014P
Orbit
LEO
Last TLE update1 day ago
Origin
Flag of USUSAF SSD (US)
ManufacturerUnknown
MissionSpacecraft
Bus & MotorUnknown
MassUnknown
Launch date (UTC)
1963-05-09 (62 years ago)
Launch vehicleUnknown
Launch site
Air Force Western Test Range (AFWTR)
Object type
Payload
Rocket body
Debris
Shape & HBRUnknown
Radar Cross SectionMedium (>0.1 m² and <1 m²)

Expand to show TLE details & history

TLE from 1 day ago
0 WESTFORD NEEDLES
1 02364U 63014P   24355.37647132  .00000088  00000-0  31584-1 0  9999
2 02364  87.5750 329.9955 0685435 247.3173 105.3837  8.67496358948812
Epoch: 2024-12-20T09:02Z
Definitive object data (Epoch: 2024-12-20T09:02:07.122Z)
Latitude-0.00004°
Longitude105.02296°
Altitude3,853.568 km
Speed6.172 km/s
True Right ascension21h 59m 58s
True Declination0° 00' 00"
Sunlit
Object was in daylight at TLE epoch
Visualization TLE readout
Latitude-66.2755°
Longitude99.41658°
Altitude3,165.074 km
Speed6.62 km/s
Apparent Right ascension22h 32m 00s
Apparent Declination-56° 13' 02"
Sunlit
Object is in daylight
Visualization observer readout
Local Sidereal Time11:14:36
Azimuth160.29° S
Elevation-72.261°
Doppler factor1
Orbital elements
Apogee altitude4,310.447 km
Perigee altitude2,939.173 km
Semi-major axis10,002.947 km
Eccentricity0.0685435
Inclination87.575°
RAAN329.9955°
Arg. of periapsis247.3173°
True anomaly112.76791°
Mean anomaly105.3837°
Eccentric anomaly109.09487°
Mean motion2.16946 °/min
BSTAR0.031584
Orbital period165.94 mins
Loading maneuver chart data...

WESTFORD NEEDLES Visibility forecast

Observer location: undefined°, undefined

Span
Click to sort rows by Start time (UTC) header in descending order
Start Az.
Max El. time (UTC)
Max El. Az.
Max El.
End time (UTC)
End Az.
24 mins2024-12-21 13:35:50.198Z344.805° N2024-12-21 13:47:50.198Z308.274° NW19.991°2024-12-21 13:59:50.198Z267.178° W
38 mins2024-12-21 21:04:50.198Z133.813° SE2024-12-21 21:22:50.198Z70.649° E35.704°2024-12-21 21:42:50.198Z7.174° NNE
42 mins2024-12-21 23:47:50.198Z200.547° SSW2024-12-22 00:06:50.198Z273.876° WNW41.14°2024-12-22 00:29:50.198Z359.404° N
19 mins2024-12-22 02:53:50.198Z291.559° WNW2024-12-22 03:02:50.198Z317.194° NNW13.651°2024-12-22 03:12:50.198Z345.223° N
36 mins2024-12-22 08:55:50.198Z3.161° NNE2024-12-22 09:15:50.198Z78.289° E36.712°2024-12-22 09:31:50.198Z146.195° SSE
30 mins2024-12-22 11:42:50.198Z353.052° N2024-12-22 12:00:50.198Z290.096° WNW38.755°2024-12-22 12:12:50.198Z224.57° SW
|